CDT,Max TemperatureF,Mean TemperatureF,Min TemperatureF,Max Dew PointF,MeanDew PointF,Min DewpointF,Max Humidity, Mean Humidity, Min Humidity, Max Sea Level PressureIn, Mean Sea Level PressureIn, Min Sea Level PressureIn, Max VisibilityMiles, Mean VisibilityMiles, Min VisibilityMiles, Max Wind SpeedMPH, Mean Wind SpeedMPH, Max Gust SpeedMPH,PrecipitationIn, CloudCover, Events, WindDirDegrees
2013-10-1,87,70,53,63,57,51,97,67,38,29.93,29.88,29.80,10,10,10,10,6,,0.00,0,,192
2013-10-2,84,70,57,69,62,57,100,86,52,29.98,29.92,29.82,10,6,2,14,4,20,0.00,1,,147
2013-10-3,81,72,62,69,65,61,100,85,65,29.90,29.80,29.69,10,9,2,20,7,32,0.57,5,Rain-Thunderstorm,151
2013-10-4,87,74,59,72,67,42,100,81,48,29.91,29.74,29.65,10,10,7,18,9,30,0.23,5,Rain-Thunderstorm,159
2013-10-5,60,50,42,42,36,33,77,58,39,30.00,29.93,29.88,10,10,10,21,13,29,0.01,4,Rain,266
2013-10-6,55,50,44,45,41,35,86,73,63,30.01,29.90,29.82,10,10,7,21,14,32,0.01,7,Rain,294
2013-10-7,75,57,41,47,41,36,86,59,29,30.12,30.06,30.01,10,10,10,12,7,20,0.00,0,,242
2013-10-8,77,62,48,48,45,43,83,59,32,30.06,30.01,29.95,10,10,10,21,10,31,0.00,0,,175
2013-10-9,77,64,50,52,49,47,89,67,40,30.05,30.00,29.96,10,10,10,18,9,24,0.00,0,,147
2013-10-10,80,64,48,56,52,46,93,68,42,30.02,29.94,29.82,10,10,10,21,8,32,0.00,0,,149
2013-10-11,78,68,57,63,57,44,89,73,54,29.89,29.76,29.69,10,10,10,21,12,29,0.00,3,,171
2013-10-12,70,56,43,43,37,31,89,56,24,30.28,30.12,29.91,10,10,10,13,5,21,0.00,0,,310
2013-10-13,71,54,37,40,37,34,93,60,27,30.42,30.34,30.29,10,10,10,15,4,20,0.00,0,,109
2013-10-14,70,58,46,61,51,36,96,79,42,30.29,29.97,29.79,10,7,2,21,11,32,0.59,6,Rain-Thunderstorm,148
2013-10-15,62,53,44,61,42,38,94,71,51,30.09,29.96,29.81,10,10,10,23,13,31,0.00,5,Rain,285
2013-10-16,59,50,42,40,38,34,81,66,41,30.10,30.05,29.97,10,10,10,15,9,20,0.00,5,Rain,292
2013-10-17,66,50,36,42,38,33,97,64,31,30.05,29.95,29.89,10,10,10,17,5,29,0.00,2,,286
2013-10-18,48,42,35,37,33,28,92,75,46,30.15,30.09,30.05,10,10,10,14,6,,0.00,4,,294
2013-10-19,66,47,30,38,34,29,96,66,29,30.06,29.94,29.84,10,10,9,20,7,29,0.00,1,,246
2013-10-20,64,52,39,43,39,36,89,62,41,30.00,29.83,29.77,10,10,10,8,5,,0.00,3,,265
2013-10-21,55,44,32,38,33,29,92,66,38,30.14,30.06,29.97,10,10,10,10,6,,0.00,2,,282
2013-10-22,57,45,33,45,37,30,89,69,51,30.14,29.98,29.88,10,10,10,20,8,31,0.00,4,Rain,310
2013-10-23,53,40,28,36,33,28,96,75,47,30.21,30.13,30.04,10,10,8,12,4,,0.00,4,Rain,316
2013-10-24,51,40,30,35,27,21,93,65,32,30.45,30.36,30.22,10,10,9,14,5,17,0.00,1,,329
2013-10-25,59,40,24,30,26,21,88,59,30,30.46,30.32,30.12,10,10,9,17,5,24,0.00,0,,186
2013-10-26,57,46,32,37,32,26,89,62,37,30.20,30.15,30.04,10,10,10,14,6,18,0.00,0,,316
2013-10-27,66,45,24,34,30,22,92,61,29,30.16,30.01,29.88,10,10,9,17,5,24,0.00,0,,172
2013-10-28,66,50,33,45,37,30,89,61,42,30.17,30.09,29.97,10,10,8,13,4,,0.00,1,,88
2013-10-29,60,54,48,59,53,39,100,94,66,30.12,29.99,29.92,10,5,0,15,9,,0.23,8,Fog-Rain-Thunderstorm,111
2013-10-30,60,54,48,61,56,47,100,98,93,29.95,29.83,29.72,10,4,0,15,5,20,0.82,8,Fog-Rain-Thunderstorm,314
2013-10-31,59,50,43,46,43,37,100,84,60,29.76,29.65,29.54,10,9,5,14,7,18,0.02,5,Rain,305